Wildwood, NJ

11:53 AM EST on February 24, 2018 (GMT -0500)
Cape May County

Weather History for KWWD - December, 2013

Change the Weather History Date:

Thursday, December 5, 2013

  Actual Average Record
Temperature  
Mean Temperature 52 °F -  
Max Temperature 57 °F 47 °F 73 °F (2001)
Min Temperature 48 °F 35 °F 24 °F (2000)
Degree Days  
Heating Degree Days 12    
Growing Degree Days 2 (Base 50)    
Moisture  
Dew Point 49 °F    
Average Humidity 91    
Maximum Humidity 94    
Minimum Humidity 87    
Precipitation  
Precipitation 0.00 in - - ()
Sea Level Pressure  
Sea Level Pressure 30.09 in    
Wind  
Wind Speed 3 mph (SSE)    
Max Wind Speed 10 mph    
Max Gust Speed -    
Visibility 1 miles    
Events      
Averages and records for this station are not official NWS values.
T = Trace of Precipitation, MM = Missing Value Source: NWS Daily Summary

Daily Weather History Graph

Daily Weather History Graph

Search for Another Location

Airport or City:

Trip Planner

Search our weather history database for the weather conditions in past years. The results will help you decide how hot, cold, wet, or windy it might be!

Date:

Astronomy

Dec. 05, 2013 Rise Set
Actual Time 7:03 AM EST 4:37 PM EST
Civil Twilight 6:33 AM EST 5:06 PM EST
Nautical Twilight 6:00 AM EST 5:40 PM EST
Astronomical Twilight 5:28 AM EST 6:12 PM EST
Moon 9:22 AM EST (12/5) 7:54 PM EST (12/5)
Length of Visible Light 10h 33m
Length of Day
9h 33m
Waxing Crescent, 10% of the Moon is Illuminated
Dec 5
Waxing Crescent
Dec 9
First Quarter
Dec 17
Full
Dec 25
Last Quarter
Jan 1
New

Hourly Weather History & Observations

Time (EST) Temp. Dew Point Humidity Pressure Visibility Wind Dir Wind Speed Gust Speed Precip Events Conditions
12:15 AM 53.6 °F 50.0 °F 88% 30.12 in 1.0 mi SSE 3.5 mph - N/A   Overcast
12:35 AM 53.6 °F 50.0 °F 88% 30.12 in 0.5 mi Calm Calm - N/A   Overcast
12:55 AM 53.6 °F 50.0 °F 88% 30.12 in 0.5 mi Calm Calm - N/A   Overcast
1:15 AM 53.6 °F 50.0 °F 88% 30.11 in 0.5 mi South 3.5 mph - N/A   Overcast
1:35 AM 51.8 °F 50.0 °F 94% 30.10 in 0.2 mi Calm Calm - N/A   Overcast
1:55 AM 51.8 °F 50.0 °F 94% 30.11 in 0.2 mi Calm Calm - N/A   Overcast
2:15 AM 51.8 °F 50.0 °F 94% 30.12 in 0.5 mi Calm Calm - N/A   Overcast
2:35 AM 51.8 °F 50.0 °F 94% 30.11 in 0.5 mi Calm Calm - N/A   Overcast
2:55 AM 51.8 °F 50.0 °F 94% 30.11 in 0.2 mi SE 3.5 mph - N/A   Overcast
3:15 AM 51.8 °F 50.0 °F 94% 30.10 in 0.2 mi Calm Calm - N/A   Overcast
3:35 AM 51.8 °F 48.2 °F 88% 30.09 in 0.2 mi Calm Calm - N/A   Overcast
3:55 AM 50.0 °F 48.2 °F 94% 30.09 in 0.2 mi ESE 3.5 mph - N/A   Overcast
4:15 AM 50.0 °F 46.4 °F 87% 30.10 in 0.5 mi SE 3.5 mph - N/A   Overcast
4:35 AM 51.8 °F 48.2 °F 88% 30.10 in 0.2 mi Calm Calm - N/A   Overcast
4:55 AM 50.0 °F 46.4 °F 87% 30.09 in 0.2 mi ESE 3.5 mph - N/A   Overcast
5:15 AM 48.2 °F 46.4 °F 93% 30.09 in 0.2 mi SE 3.5 mph - N/A   Overcast
5:35 AM 48.2 °F 46.4 °F 93% 30.09 in 0.2 mi Calm Calm - N/A   Overcast
5:55 AM 48.2 °F 46.4 °F 93% 30.10 in 0.2 mi Calm Calm - N/A   Overcast
6:15 AM 48.2 °F 44.6 °F 87% 30.09 in 0.2 mi SE 3.5 mph - N/A   Overcast
6:35 AM 48.2 °F 46.4 °F 93% 30.09 in 0.2 mi SE 3.5 mph - N/A   Overcast
6:55 AM 48.2 °F 46.4 °F 93% 30.10 in 0.2 mi Calm Calm - N/A   Overcast
7:15 AM 48.2 °F 46.4 °F 93% 30.10 in 0.2 mi Calm Calm - N/A   Overcast
7:35 AM 48.2 °F 46.4 °F 93% 30.11 in 0.2 mi Calm Calm - N/A   Overcast
7:55 AM 51.8 °F 48.2 °F 88% 30.11 in 0.2 mi SSE 4.6 mph - N/A   Overcast
8:15 AM 51.8 °F 50.0 °F 94% 30.11 in 0.2 mi SSE 6.9 mph - N/A   Overcast
8:55 AM 53.6 °F 50.0 °F 88% 30.11 in 0.2 mi SSE 9.2 mph - N/A   Overcast
9:15 AM 51.8 °F 50.0 °F 94% 30.12 in 0.2 mi South 9.2 mph - N/A   Overcast
12:55 PM 57.2 °F 53.6 °F 88% 30.04 in 9.0 mi South 9.2 mph - N/A   Overcast
1:15 PM 55.4 °F 53.6 °F 94% 30.03 in 8.0 mi South 9.2 mph - N/A   Overcast
1:35 PM 55.4 °F 51.8 °F 88% 30.04 in 5.0 mi South 10.4 mph - N/A   Overcast
1:55 PM 55.4 °F 51.8 °F 88% 30.03 in 3.0 mi South 9.2 mph - N/A   Overcast
2:15 PM 55.4 °F 51.8 °F 88% 30.03 in 5.0 mi South 10.4 mph - N/A   Overcast